Weather History for KRIV - January, 2013

Change the Weather History Date:

Saturday, January 19, 2013

  Actual Average Record
Temperature  
Mean Temperature 55 °F -  
Max Temperature 73 °F 64 °F 82 °F (2005)
Min Temperature 37 °F 40 °F 26 °F (2012)
Degree Days  
Heating Degree Days 10    
Growing Degree Days 5 (Base 50)    
Moisture  
Dew Point 18 °F    
Average Humidity 23    
Maximum Humidity 56    
Minimum Humidity 12    
Precipitation  
Precipitation 0.00 in - - ()
Sea Level Pressure  
Sea Level Pressure 30.16 in    
Wind  
Wind Speed 9 mph (NE)    
Max Wind Speed 13 mph    
Max Gust Speed 17 mph    
Visibility 10 miles    
Events      
Averages and records for this station are not official NWS values.
T = Trace of Precipitation, MM = Missing Value Source: NWS Daily Summary

Daily Weather History Graph

Daily Weather History Graph

Search for Another Location

Airport or City:

Trip Planner

Search our weather history database for the weather conditions in past years. The results will help you decide how hot, cold, wet, or windy it might be!

Date:

Astronomy

Jan. 19, 2013 Rise Set
Actual Time 6:52 AM PST 5:07 PM PST
Civil Twilight 6:25 AM PST 5:34 PM PST
Nautical Twilight 5:55 AM PST 6:04 PM PST
Astronomical Twilight 5:25 AM PST 6:34 PM PST
Moon 11:33 AM PST (1/19) 12:35 AM PST (1/19)
Length of Visible Light 11h 08m
Length of Day
10h 14m
First Quarter, 58% of the Moon is Illuminated
Jan 19
First Quarter
Jan 26
Full
Feb 3
Last Quarter
Feb 9
New
Feb 17
First Quarter

Hourly Weather History & Observations

Time (PST) Temp. Windchill Dew Point Humidity Pressure Visibility Wind Dir Wind Speed Gust Speed Precip Events Conditions
12:58 AM 41.9 °F 35.9 °F 22.5 °F 46% 30.14 in 10.0 mi NNW 10.4 mph - N/A   Clear
1:58 AM 46.4 °F 41.9 °F 21.2 °F 37% 30.14 in 10.0 mi NNE 9.2 mph - N/A   Clear
2:58 AM 37.4 °F 32.1 °F 22.8 °F 56% 30.14 in 10.0 mi North 6.9 mph - N/A   Clear
3:58 AM 41.2 °F 35.5 °F 23.0 °F 48% 30.14 in 10.0 mi North 9.2 mph - N/A   Clear
4:58 AM 51.1 °F - 17.1 °F 26% 30.15 in 10.0 mi Variable 4.6 mph - N/A   Clear
5:58 AM 46.0 °F 42.5 °F 17.8 °F 32% 30.16 in 10.0 mi NNE 6.9 mph - N/A   Clear
6:58 AM 49.5 °F - 17.2 °F 28% 30.17 in 10.0 mi NNE 10.4 mph - N/A   Clear
7:58 AM 57.9 °F - 17.6 °F 21% 30.19 in 10.0 mi NNE 9.2 mph - N/A   Partly Cloudy
8:56 AM 62.8 °F - 18.9 °F 18% 30.22 in 10.0 mi NNE 11.5 mph - N/A   Partly Cloudy
9:58 AM 66.6 °F - 19.8 °F 17% 30.21 in 10.0 mi East 11.5 mph - N/A   Clear
10:58 AM 69.4 °F - 17.2 °F 14% 30.19 in 10.0 mi ENE 12.7 mph - N/A   Clear
11:58 AM 72.0 °F - 17.1 °F 12% 30.15 in 10.0 mi ENE 12.7 mph - N/A   Clear
12:58 PM 73.0 °F - 17.1 °F 12% 30.13 in 10.0 mi ENE 12.7 mph - N/A   Clear
1:56 PM 73.8 °F - 18.5 °F 12% 30.14 in 10.0 mi ENE 9.2 mph - N/A   Clear
2:56 PM 73.2 °F - 18.9 °F 13% 30.13 in 10.0 mi ENE 10.4 mph - N/A   Clear
3:56 PM 71.4 °F - 18.1 °F 13% 30.12 in 10.0 mi ENE 9.2 mph - N/A   Clear
4:56 PM 67.5 °F - 16.9 °F 14% 30.13 in 10.0 mi NE 8.1 mph - N/A   Clear
5:56 PM 63.9 °F - 15.3 °F 15% 30.14 in 10.0 mi NNE 9.2 mph - N/A   Clear
6:56 PM 59.4 °F - 16.3 °F 19% 30.15 in 10.0 mi NNE 3.5 mph - N/A   Clear
7:56 PM 62.1 °F - 13.8 °F 15% 30.16 in 10.0 mi NE 9.2 mph - N/A   Clear
8:56 PM 54.1 °F - 14.2 °F 21% 30.16 in 10.0 mi NE 11.5 mph - N/A   Clear
9:56 PM 54.3 °F - 11.8 °F 18% 30.17 in 10.0 mi ENE 11.5 mph 17.3 mph N/A   Clear
10:58 PM 50.9 °F - 15.3 °F 24% 30.17 in 10.0 mi WNW 2.3 mph - N/A   Clear
11:58 PM 50.5 °F - 14.0 °F 23% 30.17 in 10.0 mi Variable 1.2 mph - N/A   Clear